TimeEDT,TemperatureF,Dew PointF,Humidity,Sea Level PressureIn,VisibilityMPH,Wind Direction,Wind SpeedMPH,Gust SpeedMPH,PrecipitationIn,Events,Conditions,WindDirDegrees,DateUTC
12:53 AM,66.0,55.0,68,29.97,10.0,NW,5.8,-,N/A,,Clear,320,2013-07-11 04:53:00
1:53 AM,64.0,55.0,73,29.97,10.0,NNW,4.6,-,N/A,,Clear,330,2013-07-11 05:53:00
2:53 AM,63.0,55.0,75,29.97,10.0,NW,5.8,-,N/A,,Clear,310,2013-07-11 06:53:00
3:53 AM,61.0,55.0,81,29.99,10.0,WNW,4.6,-,N/A,,Clear,300,2013-07-11 07:53:00
4:53 AM,59.0,54.0,83,30.00,10.0,West,3.5,-,N/A,,Clear,270,2013-07-11 08:53:00
5:53 AM,57.0,53.1,87,30.02,10.0,Calm,Calm,-,N/A,,Clear,0,2013-07-11 09:53:00
6:53 AM,59.0,55.0,87,30.03,10.0,West,3.5,-,N/A,,Clear,280,2013-07-11 10:53:00
7:53 AM,64.9,55.0,70,30.04,10.0,NW,4.6,-,N/A,,Clear,320,2013-07-11 11:53:00
8:53 AM,69.1,55.9,63,30.06,10.0,WNW,4.6,-,N/A,,Clear,300,2013-07-11 12:53:00
9:53 AM,72.0,55.0,55,30.06,10.0,NW,3.5,-,N/A,,Clear,320,2013-07-11 13:53:00
10:53 AM,73.9,55.9,53,30.05,10.0,North,12.7,-,N/A,,Partly Cloudy,360,2013-07-11 14:53:00
11:53 AM,73.9,55.0,52,30.06,10.0,North,11.5,-,N/A,,Scattered Clouds,360,2013-07-11 15:53:00
12:53 PM,75.9,55.0,48,30.05,10.0,North,12.7,17.3,N/A,,Scattered Clouds,360,2013-07-11 16:53:00
1:53 PM,73.9,54.0,50,30.06,10.0,Variable,5.8,-,N/A,,Mostly Cloudy,0,2013-07-11 17:53:00
2:53 PM,78.1,54.0,43,30.05,10.0,North,9.2,17.3,N/A,,Mostly Cloudy,360,2013-07-11 18:53:00
3:53 PM,78.1,55.0,45,30.06,10.0,North,10.4,-,N/A,,Clear,10,2013-07-11 19:53:00
4:53 PM,78.1,55.0,45,30.06,10.0,NNE,6.9,-,N/A,,Scattered Clouds,20,2013-07-11 20:53:00
5:53 PM,75.9,53.1,45,30.06,10.0,North,8.1,-,N/A,,Clear,10,2013-07-11 21:53:00
6:53 PM,75.9,51.1,42,30.06,10.0,North,8.1,-,N/A,,Clear,10,2013-07-11 22:53:00
7:53 PM,75.0,53.1,46,30.06,10.0,NNE,8.1,-,N/A,,Clear,30,2013-07-11 23:53:00
8:53 PM,72.0,54.0,53,30.05,10.0,NNE,8.1,-,N/A,,Clear,20,2013-07-12 00:53:00
9:53 PM,68.0,55.0,63,30.06,10.0,NE,6.9,-,N/A,,Clear,40,2013-07-12 01:53:00
10:53 PM,66.9,55.9,68,30.08,10.0,ENE,10.4,-,N/A,,Clear,60,2013-07-12 02:53:00
11:53 PM,64.0,54.0,70,30.09,10.0,ENE,9.2,-,N/A,,Clear,60,2013-07-12 03:53:00